Weather History for Scappoose, OR

Change the Weather History Date:

Saturday, November 30, 2013

  Actual Average Record
Temperature  
Mean Temperature 44 °F -  
Max Temperature 48 °F - 58 °F (2012)
Min Temperature 39 °F - 28 °F (2002)
Degree Days  
Heating Degree Days 21    
Month to date heating degree days 628  
Since 1 July heating degree days 1198  
Cooling Degree Days 0    
Month to date cooling degree days 0  
Year to date cooling degree days 396  
Moisture  
Dew Point 41 °F    
Average Humidity 87    
Maximum Humidity 93    
Minimum Humidity 80    
Precipitation  
Precipitation 0.15 in - 1.17 in (2010)
Month to date precipitation 3.22  
Year to date precipitation 25.73  
Sea Level Pressure  
Sea Level Pressure 30.33 in    
Wind  
Wind Speed 1 mph (East)    
Max Wind Speed 8 mph    
Max Gust Speed 9 mph    
Visibility 4 miles    
Events Rain    
T = Trace of Precipitation, MM = Missing Value Source: NWS Daily Summary

Daily Weather History Graph

Daily Weather History Graph

Search for Another Location

Airport:

Trip Planner

Search our weather history database for the weather conditions in past years. The results will help you decide how hot, cold, wet, or windy it might be!

Date:

Astronomy

Nov. 30, 2013 Rise Set
Actual Time 7:31 AM PST 4:28 PM PST
Civil Twilight 6:57 AM PST 5:02 PM PST
Nautical Twilight 6:20 AM PST 5:39 PM PST
Astronomical Twilight 5:44 AM PST 6:15 PM PST
Moon 4:41 AM PST (11/30) 3:02 PM PST (11/30)
Length of Visible Light 10h 04m
Length of Day
8h 57m
Waning Crescent, 6% of the Moon is Illuminated
Nov 30
Waning Crescent
Dec 2
New
Dec 9
First Quarter
Dec 17
Full
Dec 25
Last Quarter

Hourly Weather History & Observations

Time (PST) Temp. Windchill Dew Point Humidity Pressure Visibility Wind Dir Wind Speed Gust Speed Precip Events Conditions
12:04 AM 41.0 °F - 37.9 °F 89% 30.35 in 5.0 mi Calm Calm - N/A   Overcast
12:53 AM 41.0 °F 38.0 °F 37.9 °F 89% 30.37 in 5.0 mi NNW 4.6 mph - N/A   Overcast
1:53 AM 41.0 °F 35.8 °F 37.9 °F 89% 30.36 in 6.0 mi East 8.1 mph - 0.00 in Rain Light Rain
2:00 AM 41.0 °F 37.1 °F 37.9 °F 89% 30.36 in 5.0 mi East 5.8 mph - 0.00 in Rain Light Rain
2:21 AM 39.9 °F - 37.9 °F 93% 30.37 in 5.0 mi Calm Calm - 0.00 in   Mostly Cloudy
2:53 AM 41.0 °F - 39.0 °F 93% 30.37 in 5.0 mi Calm Calm - 0.00 in   Overcast
3:53 AM 41.0 °F - 39.0 °F 93% 30.37 in 5.0 mi Calm Calm - N/A   Overcast
4:12 AM 41.0 °F - 39.0 °F 93% 30.36 in 5.0 mi Calm Calm - N/A   Overcast
4:45 AM 39.9 °F - 37.9 °F 93% 30.37 in 2.0 mi Calm Calm - N/A   Overcast
4:53 AM 39.9 °F - 37.9 °F 93% 30.37 in 1.8 mi Calm Calm - N/A   Overcast
5:02 AM 39.9 °F - 39.0 °F 97% 30.36 in 2.5 mi Calm Calm - N/A   Overcast
5:12 AM 39.9 °F - 37.9 °F 93% 30.37 in 4.0 mi Calm Calm - N/A   Overcast
5:30 AM 41.0 °F - 39.0 °F 93% 30.36 in 4.0 mi Calm Calm - N/A   Overcast
5:53 AM 41.0 °F - 39.0 °F 93% 30.38 in 4.0 mi Calm Calm - N/A   Overcast
6:53 AM 41.0 °F - 39.0 °F 93% 30.38 in 5.0 mi Calm Calm - N/A   Overcast
7:53 AM 41.0 °F - 39.0 °F 93% 30.39 in 4.0 mi Calm Calm - 0.00 in Rain Light Rain
8:53 AM 42.1 °F - 39.9 °F 92% 30.38 in 4.0 mi Calm Calm - 0.00 in   Overcast
9:07 AM 43.0 °F - 39.9 °F 89% 30.39 in 4.0 mi Calm Calm - N/A   Overcast
9:53 AM 43.0 °F 41.3 °F 39.9 °F 89% 30.39 in 5.0 mi ESE 3.5 mph - N/A   Overcast
10:15 AM 44.1 °F - 39.9 °F 85% 30.39 in 4.0 mi Calm Calm - N/A   Overcast
10:53 AM 45.0 °F - 39.9 °F 82% 30.39 in 4.0 mi Calm Calm - N/A   Haze
11:00 AM 45.0 °F - 41.0 °F 86% 30.39 in 4.0 mi Calm Calm - N/A   Overcast
11:23 AM 45.0 °F - 41.0 °F 86% 30.38 in 4.0 mi Calm Calm - N/A   Overcast
11:41 AM 45.0 °F - 41.0 °F 86% 30.38 in 4.0 mi Calm Calm - N/A   Overcast
11:53 AM 46.0 °F - 41.0 °F 83% 30.37 in 4.0 mi Calm Calm - N/A   Haze
12:53 PM 46.9 °F - 42.1 °F 83% 30.36 in 5.0 mi SSE 4.6 mph - N/A   Haze
1:53 PM 48.0 °F - 42.1 °F 80% 30.35 in 5.0 mi Calm Calm - N/A   Haze
2:53 PM 48.0 °F - 42.1 °F 80% 30.34 in 6.0 mi Calm Calm - N/A   Haze
3:53 PM 48.0 °F - 42.1 °F 80% 30.33 in 6.0 mi Calm Calm - N/A   Haze
4:53 PM 46.9 °F - 42.1 °F 83% 30.32 in 7.0 mi Calm Calm - N/A   Overcast
5:53 PM 46.0 °F - 42.1 °F 86% 30.32 in 6.0 mi Calm Calm - N/A   Overcast
6:53 PM 46.9 °F - 42.1 °F 83% 30.30 in 6.0 mi Calm Calm - N/A   Haze
7:53 PM 45.0 °F - 42.1 °F 90% 30.29 in 6.0 mi Calm Calm - N/A   Overcast
8:53 PM 46.0 °F - 42.1 °F 86% 30.27 in 5.0 mi Calm Calm - 0.01 in Rain Light Rain
9:53 PM 46.0 °F 43.1 °F 43.0 °F 89% 30.25 in 3.0 mi East 5.8 mph - 0.04 in Rain Light Rain
10:09 PM 45.0 °F 43.5 °F 43.0 °F 93% 30.24 in 2.5 mi ENE 3.5 mph - 0.01 in Rain Light Rain
10:53 PM 45.0 °F - 43.0 °F 93% 30.23 in 2.5 mi Calm Calm - 0.05 in Rain Light Rain
11:02 PM 46.0 °F - 43.0 °F 89% 30.23 in 3.0 mi Calm Calm - 0.01 in Rain Light Rain
11:14 PM 45.0 °F - 43.0 °F 93% 30.22 in 2.5 mi Calm Calm - 0.02 in Rain Light Rain
11:26 PM 45.0 °F - 43.0 °F 93% 30.22 in 2.5 mi Calm Calm - 0.03 in Rain Light Rain
11:38 PM 45.0 °F - 43.0 °F 93% 30.22 in 2.0 mi Calm Calm - 0.04 in Rain Light Rain
11:53 PM 45.0 °F - 43.0 °F 93% 30.21 in 2.5 mi Calm Calm - 0.04 in Rain Light Rain